Weather History for Baker, MT

Change the Weather History Date:

Tuesday, November 27, 2012

  Actual Average Record
Temperature  
Mean Temperature 24 °F -  
Max Temperature 34 °F 38 °F 54 °F (2011)
Min Temperature 15 °F 28 °F 6 °F (2001)
Degree Days  
Heating Degree Days 40    
Moisture  
Dew Point 17 °F    
Average Humidity 75    
Maximum Humidity 85    
Minimum Humidity 56    
Precipitation  
Precipitation 0.00 in - - ()
Sea Level Pressure  
Sea Level Pressure 30.21 in    
Wind  
Wind Speed 3 mph (SW)    
Max Wind Speed 9 mph    
Max Gust Speed -    
Visibility 10 miles    
Events      
Averages and records for this station are not official NWS values.
T = Trace of Precipitation, MM = Missing Value Source: NWS Daily Summary

Daily Weather History Graph

Daily Weather History Graph

Search for Another Location

Airport:

Trip Planner

Search our weather history database for the weather conditions in past years. The results will help you decide how hot, cold, wet, or windy it might be!

Date:

Astronomy

Nov. 27, 2012 Rise Set
Actual Time 7:15 AM MST 4:13 PM MST
Civil Twilight 6:41 AM MST 4:47 PM MST
Nautical Twilight 6:04 AM MST 5:25 PM MST
Astronomical Twilight 5:28 AM MST 6:01 PM MST
Moon 3:47 PM MST (11/27) 6:21 AM MST (11/27)
Length of Visible Light 10h 06m
Length of Day
8h 58m
Waxing Gibbous, 99% of the Moon is Illuminated
Nov 27
Waxing Gibbous
Nov 28
Full
Dec 6
Last Quarter
Dec 13
New
Dec 19
First Quarter

Hourly Weather History & Observations

Time (MST) Temp. Windchill Dew Point Humidity Pressure Visibility Wind Dir Wind Speed Gust Speed Precip Events Conditions
12:51 AM 23.0 °F 18.4 °F 18.0 °F 81% 30.15 in 10.0 mi West 3.5 mph - N/A   Clear
1:51 AM 21.9 °F 15.7 °F 17.1 °F 82% 30.15 in 10.0 mi WNW 4.6 mph - N/A   Clear
2:51 AM 21.0 °F - 16.0 °F 81% 30.16 in 10.0 mi Calm Calm - N/A   Clear
3:51 AM 21.0 °F - 15.1 °F 78% 30.16 in 10.0 mi Calm Calm - N/A   Clear
4:51 AM 19.9 °F - 15.1 °F 81% 30.17 in 10.0 mi Calm Calm - N/A   Clear
5:51 AM 17.1 °F - 12.0 °F 81% 30.18 in 10.0 mi Calm Calm - N/A   Clear
6:51 AM 15.1 °F - 10.9 °F 84% 30.19 in 10.0 mi Calm Calm - N/A   Clear
7:51 AM 18.0 °F - 12.9 °F 81% 30.20 in 10.0 mi Calm Calm - N/A   Clear
8:51 AM 21.9 °F - 17.1 °F 82% 30.21 in 10.0 mi Calm Calm - N/A   Clear
9:51 AM 27.0 °F 18.7 °F 21.0 °F 78% 30.22 in 10.0 mi WSW 8.1 mph - N/A   Clear
10:51 AM 30.0 °F 22.4 °F 21.0 °F 69% 30.21 in 10.0 mi West 8.1 mph - N/A   Clear
11:51 AM 33.1 °F 25.5 °F 21.0 °F 61% 30.19 in 10.0 mi West 9.2 mph - N/A   Scattered Clouds
12:51 PM 34.0 °F 28.0 °F 21.0 °F 59% 30.20 in 10.0 mi WNW 6.9 mph - N/A   Clear
1:51 PM 34.0 °F 28.0 °F 21.0 °F 59% 30.21 in 10.0 mi West 6.9 mph - N/A   Clear
2:51 PM 34.0 °F 27.2 °F 19.9 °F 56% 30.22 in 10.0 mi WNW 8.1 mph - N/A   Unknown
4:51 PM 30.0 °F - 19.9 °F 66% 30.25 in 10.0 mi Calm Calm - N/A   Clear
5:51 PM 27.0 °F 23.0 °F 19.0 °F 72% 30.27 in 10.0 mi SSE 3.5 mph - N/A   Clear
7:51 PM 21.0 °F 16.2 °F 17.1 °F 85% 30.28 in 10.0 mi ESE 3.5 mph - N/A   Clear
8:51 PM 21.0 °F 13.4 °F 15.1 °F 78% 30.27 in 10.0 mi South 5.8 mph - N/A   Clear
9:51 PM 21.9 °F 14.5 °F 16.0 °F 78% 30.24 in 10.0 mi SSE 5.8 mph - N/A   Clear
10:51 PM 21.9 °F 15.7 °F 16.0 °F 78% 30.23 in 10.0 mi East 4.6 mph - N/A   Clear
11:51 PM 21.9 °F 15.7 °F 16.0 °F 78% 30.22 in 10.0 mi ESE 4.6 mph - N/A   Clear